Tracking 20623 objects as of 3-Apr-2020
HD Live streaming from Space Station
objects crossing your sky now

GAOFEN 3 DEB

Track GAOFEN 3 DEB now!
10-day predictions


NORAD ID: 42678
Int'l Code: 2016-049C
Perigee: 741.3 km
Apogee: 754.8 km
Inclination: 98.4 °
Period: 99.6 minutes
Semi major axis: 7119 km
RCS: Unknown
Launch date: August 9, 2016
Source: People's Republic of China (PRC)
Launch site: Jiuquan Satellite Launch Center, China (JSC)

Note: This is SATELLITE DEBRIS
aabbcc
Your satellite tracking list
Your tracking list is empty




NASA's NSSDC Master Catalog

Two Line Element Set (TLE):
1 42678U 16049C   20092.82441737 +.00000006 +00000-0 +14037-4 0  9991
2 42678 098.3937 106.8892 0009470 041.7676 318.4237 14.45348645186280
Source of the keplerian elements: AFSPC